Location: *
(37.9500°N, 27.3666°E)
Time: 05:23:30
(UTC+00:00)

Cosmos 1953 - Pass Details

Date: 24 October 2021
Orbit: 537 x 557 km, 82.5° (Epoch: 03 December)

Event Time Altitude Azimuth Distance (km) Brightness Sun altitude
Rises 15:50:57 0° 196° (SSW) 2,722 6.2 -6.6°
Reaches altitude 10° 15:53:08 10° 201° (SSW) 1,833 5.4 -7.0°
Maximum altitude 15:57:06 55° 279° (W) 675 3.2 -7.8°
Drops below altitude 10° 16:01:06 10° 358° (N) 1,850 4.9 -8.6°
Sets 16:03:20 0° 3° (N) 2,749 5.8 -9.0°
